Temp
22 22 23 22 22 20 21 24 26 28 30 31 31 31 32 32 32 29 26 26 28 27 27 27 27 26 27 27 27 27 27 26 26 25 25 24 24 23 23 23 23 23 23 22 22 22 23 22 22
22 22 22 19 20 21 23 24 26 27 30 29 31 33 32 33 29 26 25 26 28 26 26 27 27 26 26 26 27 27 26 26 25 25 25 24 24 24 23 23 23 23 22 22 22 22 22 22 22
22 22 20 19 18 22 25 24 27 29 29 30 31 32 31 32 29 26 27 25 24 24 26 26 26 26 26 26 26 26 26 25 25 24 24 24 23 23 23 22 22 22 22 22 22 22 22 22 21
22 19 17 19 20 22 25 26 26 28 28 29 31 31 32 31 28 28 25 25 25 24 26 26 26 26 26 26 26 26 25 25 25 24 24 23 23 23 23 22 22 22 22 22 22 22 22 22 22
21 16 18 18 20 22 24 24 25 27 27 28 30 30 30 30 28 26 27 27 27 24 25 26 26 26 25 26 26 25 25 25 25 24 24 23 23 22 22 22 22 22 21 22 22 22 22 23 22
18 16 17 21 23 24 23 24 24 25 26 27 30 29 29 27 26 24 24 25 27 27 26 25 26 26 26 25 25 25 25 25 24 24 23 23 22 22 22 22 22 22 22 22 23 23 23 23 23
18 15 17 18 20 22 25 24 24 26 27 27 30 29 28 26 25 24 23 23 24 24 24 24 25 26 26 25 25 25 25 24 23 23 22 22 22 22 21 21 22 22 22 23 22 23 23 23 23
17 16 18 18 23 21 24 26 27 25 27 30 30 28 28 26 25 24 23 22 22 22 23 22 23 23 24 24 24 24 24 23 23 22 22 22 22 22 22 22 22 22 23 23 23 23 23 23 23
18 17 16 19 20 24 25 26 26 28 28 28 30 30 30 26 25 23 21 21 21 21 21 21 21 22 23 23 22 23 23 23 22 22 22 22 22 22 22 23 23 23 23 23 23 23 23 23 23
17 15 19 21 24 23 24 25 25 27 26 27 28 29 29 26 24 23 22 21 20 20 20 21 20 20 20 21 21 21 22 22 22 22 22 22 22 22 22 22 23 23 22 22 22 22 22 22 22
17 20 22 21 23 23 22 23 25 27 24 26 28 27 27 26 25 24 23 22 21 20 20 21 21 20 20 20 20 20 21 22 22 22 22 22 22 22 22 22 22 22 21 21 21 21 21 21 21
17 18 22 21 23 22 23 23 25 24 25 26 26 28 29 26 25 24 23 22 20 20 20 21 23 22 20 20 20 20 22 22 22 22 22 22 22 22 22 22 22 22 21 21 21 22 22 21 21
16 19 21 22 21 21 21 22 22 23 24 25 26 26 27 27 26 26 24 22 21 20 20 20 23 23 24 24 23 23 23 23 23 22 22 22 23 23 23 23 22 22 22 22 22 22 22 21 21
19 19 21 21 20 20 22 23 23 26 25 25 26 26 26 27 27 26 24 21 21 20 20 22 24 25 25 24 24 24 24 24 24 23 23 23 24 23 23 23 23 23 22 22 22 22 22 22 21
18 18 19 20 20 20 22 22 23 25 25 25 26 25 26 25 24 26 23 22 22 21 21 22 24 25 25 24 24 24 25 24 23 24 24 24 24 23 23 23 23 23 22 22 21 22 22 21 20
18 18 17 21 20 21 22 22 25 24 24 24 25 25 26 25 25 26 24 23 22 21 21 22 23 23 24 25 25 25 24 25 25 25 25 24 24 23 22 23 23 23 23 22 21 21 21 20 20
15 15 16 19 21 22 22 22 25 25 24 24 24 24 25 25 21 24 24 23 22 21 22 22 22 23 24 25 24 25 24 25 25 24 24 24 24 23 23 23 22 22 22 22 21 20 20 20 20
15 15 18 18 21 20 21 22 23 24 24 24 23 24 23 24 22 22 23 22 22 22 22 23 23 23 24 24 24 23 24 25 24 24 25 24 23 23 23 22 22 22 22 21 20 20 19 19 19
16 16 16 17 19 18 19 20 21 22 22 24 23 23 23 23 23 20 22 22 21 20 21 22 22 22 24 22 22 22 24 23 22 23 24 23 23 23 23 22 22 21 21 20 19 19 19 19 18
16 15 16 17 19 19 18 19 19 22 21 23 24 22 23 22 19 20 20 20 20 20 21 21 21 22 24 23 22 23 23 22 22 23 23 23 23 23 23 22 21 20 19 18 18 19 18 18 18
16 16 16 16 18 19 18 18 20 21 21 22 23 23 22 23 19 19 20 20 20 20 20 22 22 24 23 22 23 22 22 21 21 22 22 22 22 23 22 21 20 19 18 18 18 18 18 18 17
14 17 17 17 16 15 18 16 20 20 21 22 22 22 22 22 20 19 19 20 20 20 20 22 23 23 22 22 21 22 22 21 20 19 20 20 22 21 20 20 19 19 18 18 18 17 17 17 16
16 17 17 17 15 15 16 15 17 19 20 20 22 21 22 20 20 19 19 19 20 20 20 21 21 21 21 22 21 23 22 22 21 19 20 20 19 19 19 19 18 18 17 17 17 17 17 17 16
17 16 15 15 13 13 15 15 18 19 20 21 21 22 23 21 20 20 20 20 20 20 20 20 19 20 20 21 21 21 22 21 19 19 18 18 18 18 18 18 17 17 17 17 16 16 16 16 16
14 13 12 11 11 14 15 15 17 18 19 21 21 22 24 20 21 20 19 19 20 20 20 19 19 19 20 20 21 23 23 21 19 18 18 18 17 17 17 17 17 17 16 16 16 16 16 16 15
12 12 11 10 13 15 17 16 17 20 21 21 22 22 21 20 21 22 20 19 19 20 20 18 19 19 19 21 21 21 22 19 18 18 18 18 17 17 17 17 17 16 16 16 16 15 15 15 14
13 12 14 13 13 12 13 16 19 20 20 20 21 21 20 19 19 22 20 20 20 19 18 19 18 19 19 21 19 19 19 18 17 17 18 17 16 16 17 17 16 15 15 15 15 15 14 14 14
14 15 12 12 10 13 12 15 17 18 19 20 19 18 16 18 18 20 19 20 20 19 19 19 18 19 19 19 18 18 17 17 17 17 17 16 16 16 16 15 15 15 14 14 14 14 13 13 13
12 13 12 12 10 10 12 13 18 19 17 18 19 16 16 16 17 20 20 20 19 19 19 18 19 19 18 18 17 17 16 17 17 17 16 16 16 15 15 14 14 14 13 13 13 13 12 12 12
14 14 12 13 12 11 12 15 17 16 16 16 16 15 16 15 17 19 19 18 18 18 19 19 19 18 17 16 16 16 16 16 16 16 15 15 14 14 14 14 13 12 12 12 12 11 11 11 11
Height
764 766 767 769 793 800 801 778 753 750 743 722 719 722 717 714 721 749 706 711 712 716 724 731 738 743 747 751 755 759 761 764 768 771 775 777 781 783 786 788 791 792 793 793 794 796 797 798 800
763 765 767 776 801 808 785 759 752 746 729 723 720 714 718 719 707 708 709 714 717 720 726 731 735 741 747 752 756 760 764 765 768 771 774 777 779 782 784 787 790 792 794 795 795 797 798 798 799
762 764 773 785 800 791 767 747 743 734 728 728 729 713 716 713 702 704 708 713 716 722 728 732 738 742 748 753 758 760 764 767 770 774 776 779 782 785 786 788 791 793 796 797 796 797 798 799 801
762 766 775 790 783 763 745 738 737 736 729 725 724 728 709 702 706 704 709 714 718 725 730 734 739 744 749 753 758 762 765 768 772 775 779 781 783 785 787 790 793 795 796 796 796 797 799 801 801
760 772 787 790 773 754 740 735 737 741 735 731 730 731 718 701 705 706 708 713 717 725 730 735 739 744 749 755 758 764 766 769 773 776 779 783 786 788 789 790 792 795 797 798 799 799 799 800 800
769 773 792 775 753 742 739 732 735 737 732 729 729 724 714 702 706 710 712 711 716 719 729 736 739 745 749 754 759 763 767 769 773 777 781 784 787 789 791 792 794 796 798 799 799 800 800 800 801
765 779 779 771 763 750 731 727 733 731 729 727 717 727 711 704 709 712 715 723 721 725 729 734 739 745 749 755 760 765 769 771 776 780 783 785 788 789 790 792 795 796 798 800 801 801 801 802 802
758 767 768 763 749 750 725 721 715 725 723 708 708 724 718 699 709 713 716 723 726 726 730 735 740 746 750 756 762 767 771 774 778 782 786 787 789 790 790 792 793 796 798 798 799 799 800 800 800
749 769 771 754 751 731 718 723 714 707 713 711 707 706 691 693 706 713 717 723 727 730 733 735 741 747 752 757 762 768 772 775 780 783 785 788 790 790 791 791 791 792 793 794 796 796 798 799 798
751 762 745 731 720 725 726 724 720 717 716 711 707 696 691 693 701 707 713 719 724 728 733 737 742 747 752 758 763 769 772 776 780 782 784 787 790 790 791 792 794 795 796 798 798 798 798 799 799
743 732 725 720 718 720 724 723 715 715 719 711 708 705 702 692 697 702 709 711 714 723 730 734 739 745 751 757 762 766 770 775 779 783 785 788 789 790 792 793 796 797 797 798 800 800 802 802 802
744 728 721 718 717 719 721 716 713 712 706 698 700 701 703 706 695 700 707 712 717 722 727 730 733 738 747 754 759 763 768 773 777 780 783 786 786 789 791 792 794 795 796 795 798 798 799 801 801
737 726 718 715 719 718 718 717 719 704 698 694 694 698 697 698 693 699 704 711 715 720 723 728 729 733 739 746 753 759 764 769 775 781 782 783 784 787 790 791 793 794 795 796 796 795 796 798 799
723 722 719 716 718 718 720 714 714 681 691 691 693 694 693 691 695 698 706 711 714 717 720 723 727 731 737 743 749 755 763 767 767 775 778 783 782 786 790 790 794 794 795 797 797 796 798 798 798
722 727 718 714 714 716 716 716 694 691 691 690 689 692 692 691 695 697 697 703 707 711 716 721 724 729 734 740 749 753 758 765 768 770 775 781 782 784 788 789 791 792 794 795 796 794 796 796 799
724 723 731 703 709 710 713 704 681 684 691 693 687 689 690 691 689 692 697 699 706 712 715 720 725 729 733 738 743 746 752 759 760 765 772 777 781 784 786 786 789 789 792 793 793 792 794 795 798
731 735 727 718 698 704 707 691 681 680 686 687 684 684 689 688 691 688 690 696 701 706 711 717 722 726 731 736 739 745 752 754 759 763 772 774 780 782 784 785 786 789 789 790 791 791 794 797 797
732 731 718 717 703 703 704 690 687 682 684 683 683 681 685 685 687 685 689 693 699 703 707 712 719 724 729 735 738 748 752 754 756 763 770 770 775 779 782 784 786 787 787 789 790 792 794 796 796
724 724 728 720 710 713 706 697 692 685 680 681 682 683 683 683 678 687 688 691 698 706 709 712 716 721 727 732 739 745 745 752 758 765 768 770 771 775 782 783 783 785 788 789 791 793 794 794 794
722 726 723 718 710 709 706 697 691 685 679 673 672 681 679 680 682 685 691 695 697 698 704 710 713 719 721 728 737 739 745 752 758 765 767 771 772 775 778 780 784 784 787 789 791 793 792 793 794
721 720 722 726 715 704 710 699 685 680 674 669 666 670 672 669 678 682 687 692 696 699 701 703 708 714 720 727 733 740 749 753 758 762 764 768 770 771 776 781 783 784 787 791 793 792 791 792 794
723 710 714 718 721 727 707 717 679 680 675 668 663 665 668 665 667 675 681 687 691 693 694 697 704 710 717 726 733 736 742 749 752 759 762 767 767 772 777 781 783 785 788 791 793 793 792 794 794
710 706 711 714 720 724 721 729 688 674 677 671 661 659 662 665 663 671 675 677 682 686 692 697 702 708 716 724 731 735 740 746 752 757 762 767 769 774 778 781 784 785 790 792 793 795 793 795 795
697 705 712 715 726 728 719 721 672 678 671 664 658 656 657 659 662 662 663 670 676 683 691 697 702 707 714 721 731 734 736 743 750 757 762 769 772 775 777 781 785 788 791 794 796 796 795 797 797
705 715 732 740 735 713 707 714 679 666 663 657 657 658 656 657 656 658 663 669 675 681 688 695 702 707 712 720 728 732 735 739 747 753 760 765 771 775 779 784 787 791 794 796 797 797 798 799 798
708 712 730 736 714 701 692 697 669 656 657 656 653 651 656 657 653 652 655 659 666 674 683 689 696 704 711 719 727 733 736 741 747 750 756 763 773 776 782 787 790 794 795 796 798 798 799 800 800
699 706 696 709 705 714 700 683 657 651 654 653 650 651 654 654 652 650 654 653 659 667 674 682 692 702 710 718 725 730 736 741 745 753 760 769 775 780 785 788 791 794 796 798 799 800 800 802 801
689 688 708 709 727 702 699 688 670 654 652 648 653 652 656 650 645 644 648 648 651 658 669 683 690 698 707 716 722 729 734 739 747 755 762 769 777 781 785 790 794 796 798 799 800 802 803 802 803
695 693 699 699 710 717 703 690 649 645 651 650 645 652 651 648 642 637 640 648 648 659 670 682 691 699 709 716 722 728 735 743 750 759 766 772 779 783 787 793 797 798 799 800 802 803 804 803 804
681 683 692 689 695 698 693 668 642 645 648 649 649 647 641 638 633 634 635 648 651 661 668 681 690 700 709 717 724 731 738 746 752 761 768 777 782 786 791 795 798 800 800 801 802 805 807 804 801
Wind_Speed
5 5 3 2 2 4 5 8 3 4 7 1 6 3 8 3 9 6 6 23 37 43 40 35 32 29 28 26 24 23 22 20 20 20 20 21 22 22 23 22 20 17 14 12 12 11 9 8 8
3 1 2 2 4 3 7 5 15 7 8 10 7 6 5 6 3 3 14 16 32 43 38 36 34 31 28 27 25 23 22 22 21 21 22 22 23 24 23 21 18 15 13 12 11 9 8 8 8
4 4 3 4 5 10 10 8 2 4 8 3 7 3 3 5 1 10 5 23 36 39 38 35 32 31 29 27 25 24 23 22 21 20 21 22 22 21 20 19 16 14 11 9 8 7 7 8 8
5 4 3 3 13 10 10 2 5 4 5 5 2 8 4 0 2 11 28 30 40 38 37 34 32 30 28 28 26 24 23 22 20 19 19 21 21 20 18 15 13 11 9 8 7 6 6 6 7
4 3 2 5 12 7 5 7 3 3 5 2 4 7 5 4 8 25 35 34 45 39 36 34 32 30 28 27 26 24 23 21 19 19 19 20 19 17 16 15 13 10 8 6 4 4 5 5 6
3 3 1 12 21 2 7 13 6 6 5 7 6 5 6 8 21 25 28 39 49 44 37 33 31 29 28 27 26 24 23 21 20 19 19 19 18 16 14 13 10 8 6 5 5 4 4 5 5
6 4 6 4 5 6 15 8 7 4 4 9 5 4 4 1 17 22 23 21 36 39 38 34 32 29 28 26 25 24 22 21 19 18 18 18 17 15 14 11 9 7 6 4 4 3 3 3 3
5 4 4 6 12 10 7 6 4 9 8 3 8 6 8 5 22 24 25 23 27 35 34 30 28 28 28 26 24 22 21 19 17 16 16 16 16 15 13 11 9 8 6 6 5 5 5 4 4
5 3 6 8 9 14 2 4 3 2 5 3 5 4 13 33 28 26 25 24 26 24 27 30 25 26 26 24 22 21 19 18 16 16 15 16 16 15 14 12 11 10 9 8 7 6 6 6 5
5 6 12 7 17 4 5 4 2 4 6 6 7 10 18 34 30 23 21 22 25 25 28 28 25 26 22 20 20 20 19 18 18 17 17 16 16 16 14 12 10 8 7 6 6 6 6 7 7
6 15 15 5 7 8 4 7 4 3 9 9 6 9 2 23 21 19 22 29 28 31 29 32 31 25 23 22 24 22 20 21 19 17 16 16 15 15 13 11 11 10 8 7 7 6 7 8 9
6 11 19 5 14 6 4 5 3 9 13 6 6 1 4 13 19 17 19 25 30 31 31 37 35 33 29 28 27 25 24 23 21 20 18 18 17 16 15 14 13 12 10 7 8 6 7 7 6
7 3 7 19 11 8 9 14 7 18 11 13 14 6 11 19 19 20 23 23 30 31 33 34 38 38 37 33 31 30 27 24 21 20 18 18 17 16 16 15 14 12 10 8 7 7 8 8 7
4 10 19 14 9 5 14 18 6 27 11 12 8 9 7 18 18 16 21 23 29 31 37 44 41 39 37 35 34 31 26 26 25 23 19 19 19 17 16 15 15 13 13 12 10 9 11 12 11
8 11 12 13 4 8 6 18 30 16 15 16 13 8 6 10 8 16 33 34 38 38 41 44 43 41 40 37 33 31 29 27 25 21 19 21 21 21 18 15 15 14 14 13 13 10 10 8 10
3 3 4 9 11 8 12 27 16 12 10 12 14 8 7 8 17 22 31 35 33 32 41 44 41 41 39 36 36 34 31 27 25 23 23 22 23 23 20 14 15 16 14 14 14 10 10 8 9
4 5 7 6 4 7 16 21 4 8 9 11 11 8 7 7 5 19 30 33 37 40 42 42 41 43 39 36 34 30 29 28 24 25 26 23 25 24 19 16 15 14 11 12 13 12 8 8 8
5 4 2 4 2 6 13 23 12 10 7 12 9 10 7 10 10 20 30 31 34 40 46 46 42 42 37 32 31 30 29 28 27 27 29 26 26 23 19 15 16 13 11 13 13 10 7 6 5
10 12 7 5 9 9 6 14 9 7 11 11 9 8 7 10 8 16 24 30 32 28 35 39 36 40 39 32 31 33 28 28 26 30 29 28 27 22 18 19 16 13 14 12 10 8 4 2 4
9 10 13 5 6 6 9 17 9 4 9 10 14 9 10 7 7 13 19 24 31 38 41 38 39 42 47 35 32 25 28 29 28 29 27 28 27 22 21 18 16 11 10 10 10 8 4 2 5
9 13 8 6 7 15 9 18 14 6 10 8 8 7 9 14 14 15 19 26 31 33 38 43 44 47 43 35 29 21 28 18 23 24 25 26 26 24 20 15 11 9 9 10 8 4 3 5 4
6 4 1 5 5 5 1 7 12 6 10 8 10 7 10 13 10 15 19 21 30 35 40 44 47 46 41 33 30 34 28 17 17 25 25 27 24 18 13 9 8 9 9 8 4 3 5 4 4
9 7 6 4 7 3 6 4 5 8 7 11 10 9 8 9 15 17 19 27 36 36 36 38 42 37 35 37 34 37 27 22 23 25 26 20 17 13 9 8 10 10 8 5 6 5 3 2 2
5 5 2 4 3 8 7 7 17 11 11 8 7 8 5 8 11 17 24 31 31 32 31 31 35 35 36 41 33 33 34 29 27 27 24 22 18 14 11 11 9 8 9 8 5 3 3 2 4
4 6 2 2 4 10 9 9 21 3 5 12 11 7 2 9 13 16 18 17 23 28 31 29 31 28 33 36 31 32 31 31 33 31 28 24 19 16 13 12 13 12 8 5 3 3 3 4 5
7 8 4 6 5 11 9 8 16 13 16 18 18 17 5 8 12 17 19 20 26 31 33 32 31 27 30 35 28 28 28 26 28 28 26 23 21 19 17 15 12 11 8 6 4 4 4 2 4
4 5 9 4 5 3 4 3 23 22 16 14 18 11 7 10 9 14 16 20 29 32 35 37 32 27 28 32 26 28 26 26 26 27 25 24 22 21 16 13 13 13 11 9 9 8 7 3 4
12 4 2 3 5 7 5 4 11 5 19 22 14 7 6 8 10 10 17 21 31 36 35 30 31 33 31 28 30 28 27 25 26 26 26 25 22 20 18 18 17 14 12 10 8 10 9 6 6
2 4 6 4 5 5 3 5 18 18 9 11 15 5 8 8 11 13 15 18 29 32 31 29 30 29 28 30 30 32 30 28 28 29 26 25 23 22 22 19 17 15 13 11 9 8 7 7 7
3 3 2 3 5 5 3 12 5 3 6 5 6 6 8 8 11 7 15 15 23 28 32 31 31 31 29 32 33 33 34 34 35 31 29 27 25 23 22 19 17 14 13 11 9 8 9 10 11
Wind_Direction
238 289 287 91 62 64 244 245 220 248 314 104 310 303 200 241 169 206 334 165 167 164 166 165 163 161 159 157 152 147 142 138 137 137 137 137 139 140 140 140 141 139 137 138 135 133 127 126 123
179 183 107 90 128 178 247 210 236 197 250 348 345 319 299 224 215 99 117 175 168 163 166 165 163 161 160 159 155 150 146 142 142 142 142 144 145 145 144 144 144 141 137 135 134 134 130 128 129
136 171 108 154 182 213 240 207 96 217 257 269 325 244 313 280 71 146 183 160 163 162 166 163 162 161 161 160 158 153 152 148 146 145 145 146 146 145 145 147 147 143 139 133 130 132 135 133 134
146 32 19 162 228 250 234 245 122 322 302 251 214 298 284 343 215 167 159 163 162 163 165 164 163 162 164 163 162 159 156 151 149 149 148 149 149 149 147 149 149 147 147 146 143 138 140 140 139
118 67 208 234 246 250 251 272 260 245 270 157 3 273 259 50 148 156 161 168 169 166 166 164 165 163 165 166 163 164 159 155 154 154 154 153 151 150 148 150 152 150 147 147 148 150 150 151 151
84 108 167 231 236 201 247 249 264 220 248 295 259 236 250 124 147 158 160 164 172 165 166 165 164 166 167 168 167 167 164 161 159 158 158 155 154 151 148 146 147 149 156 163 168 173 174 170 171
153 133 222 237 253 271 247 195 231 241 222 255 266 230 270 240 153 157 154 156 159 163 164 163 166 168 168 169 170 170 168 164 161 161 162 160 160 157 153 152 157 164 172 176 185 196 200 200 204
139 136 237 230 236 262 247 159 194 176 247 240 188 238 249 201 148 150 145 148 154 161 159 158 162 167 167 168 171 170 169 166 162 163 165 167 168 169 167 166 168 174 184 187 200 207 213 220 224
142 186 222 222 200 221 85 206 285 239 227 326 202 234 234 135 142 134 131 142 149 149 155 158 153 162 164 165 166 170 168 166 166 167 171 175 181 181 180 181 181 185 191 196 206 212 226 237 241
180 196 216 211 233 269 248 267 302 304 307 294 302 348 150 142 149 151 153 155 156 154 154 153 151 154 151 151 157 166 163 171 175 176 178 184 188 190 191 192 197 203 213 228 233 242 252 257 262
208 233 228 219 231 244 218 273 205 253 278 235 262 20 223 154 162 161 165 171 164 156 154 163 159 149 148 154 160 165 167 176 183 184 186 186 191 196 199 202 213 221 226 238 250 266 280 290 294
241 232 239 253 254 277 270 270 212 215 244 244 263 232 223 209 170 166 165 166 154 160 162 167 167 163 163 164 166 169 179 181 185 187 188 191 190 198 203 210 217 226 230 237 254 266 270 282 301
240 265 249 241 252 247 289 265 265 265 266 282 283 270 234 196 185 173 170 156 156 164 166 170 172 171 174 175 177 180 182 182 187 194 191 194 194 199 204 212 222 232 241 248 250 251 255 265 280
245 214 250 266 248 239 246 269 267 260 249 252 247 255 243 188 202 156 160 159 169 168 171 178 178 174 176 178 181 180 184 188 181 190 195 201 194 200 208 209 230 245 252 253 261 270 278 262 259
267 280 276 243 217 240 201 270 244 264 273 285 275 259 212 198 178 181 170 171 175 180 177 179 178 180 180 180 182 181 186 189 188 187 193 205 200 205 216 228 238 251 258 248 241 246 264 248 243
301 246 220 265 187 215 163 257 269 226 204 239 253 228 197 196 196 182 177 176 178 172 177 179 181 183 182 180 186 185 188 190 191 188 196 202 208 211 219 236 238 240 243 235 233 227 215 218 235
234 244 226 292 212 201 194 250 196 182 194 226 240 230 179 185 161 189 178 175 175 178 175 180 184 184 184 184 185 185 189 189 196 195 200 198 209 217 222 237 224 216 204 206 213 206 221 249 263
219 258 235 208 294 201 224 255 267 284 225 227 229 247 176 183 198 179 178 175 177 177 179 182 184 185 184 185 183 188 191 191 190 200 201 197 203 209 217 212 195 195 197 197 204 223 239 244 281
293 288 275 304 320 337 263 273 267 248 262 237 236 231 199 196 196 171 177 174 172 176 178 186 184 188 183 186 181 191 189 201 205 211 207 207 200 199 207 197 201 206 216 215 215 192 180 271 328
247 265 277 288 266 296 300 289 283 268 256 243 233 194 214 172 164 163 166 173 175 177 185 187 189 188 186 190 192 183 193 207 211 214 216 219 205 200 205 209 213 213 207 188 181 189 175 125 61
237 245 257 259 284 278 277 284 269 241 237 273 256 195 190 202 170 170 172 176 181 182 183 190 190 191 193 191 185 178 195 193 189 203 206 207 202 198 205 210 214 207 195 183 179 178 177 146 86
224 240 296 307 272 259 44 281 262 178 229 234 261 230 200 207 171 170 173 176 182 186 188 188 189 192 192 193 182 178 177 167 170 174 182 181 180 185 183 188 195 184 177 177 176 151 132 108 80
239 216 231 265 262 9 293 277 256 162 232 251 248 255 217 193 176 174 180 180 188 187 185 187 190 191 190 192 187 179 169 164 175 171 167 161 152 153 158 166 164 159 167 191 161 141 102 52 71
213 163 145 181 132 248 202 207 268 222 229 271 261 250 230 210 185 185 185 184 189 187 185 183 185 189 193 189 182 175 170 165 166 162 154 155 148 146 140 149 153 140 131 131 142 106 54 59 78
83 110 257 268 194 248 162 213 249 277 250 234 276 290 290 208 192 190 183 183 182 178 181 184 188 179 190 187 183 187 179 176 168 162 158 150 146 143 136 137 135 128 131 134 99 89 79 84 56
186 160 180 199 227 252 188 214 248 245 268 263 277 278 284 221 209 199 184 181 179 180 180 179 179 175 185 184 171 180 185 176 162 164 157 149 151 139 135 134 132 129 119 96 95 104 92 64 38
235 194 206 270 213 303 254 268 249 247 259 268 259 288 289 234 213 207 187 182 179 181 180 178 171 167 169 184 173 176 176 175 160 150 147 142 136 134 140 136 125 114 107 100 97 87 77 85 51
202 148 95 170 201 239 242 209 238 183 231 243 261 280 326 271 231 196 193 185 180 180 179 177 169 167 163 160 167 162 162 156 149 144 137 134 132 130 127 123 122 119 107 97 89 88 88 79 51
125 211 212 184 166 183 225 230 231 235 229 236 238 246 253 261 250 203 188 193 171 167 163 160 155 149 147 147 150 149 143 143 141 139 132 127 128 129 126 129 126 113 104 91 83 68 43 21 352
266 211 224 215 229 240 190 249 264 84 157 200 237 263 254 239 245 206 161 161 155 153 149 150 149 143 141 136 136 132 137 138 132 129 128 135 127 125 127 124 118 108 93 82 60 33 5 352 347